TimePST,TemperatureF,Dew PointF,Humidity,Sea Level PressureIn,VisibilityMPH,Wind Direction,Wind SpeedMPH,Gust SpeedMPH,PrecipitationIn,Events,Conditions,WindDirDegrees,DateUTC
12:14 AM,10.4,6.8,85,30.51,2.0,Calm,Calm,-,N/A,,Partly Cloudy,0,2013-01-17 08:14:00
12:16 AM,10.4,6.8,85,30.51,1.0,Calm,Calm,-,N/A,,Mist,0,2013-01-17 08:16:00
12:23 AM,8.6,5.0,85,30.51,0.5,Calm,Calm,-,N/A,Fog,Light Freezing Fog,0,2013-01-17 08:23:00
12:50 AM,8.6,6.8,92,30.51,2.0,Calm,Calm,-,N/A,,Mostly Cloudy,0,2013-01-17 08:50:00
12:53 AM,9.0,7.0,92,30.61,3.0,Calm,Calm,-,N/A,,Scattered Clouds,0,2013-01-17 08:53:00
1:08 AM,8.6,5.0,85,30.51,7.0,Calm,Calm,-,N/A,,Mostly Cloudy,0,2013-01-17 09:08:00
1:28 AM,6.8,5.0,92,30.51,1.8,Calm,Calm,-,N/A,,Mostly Cloudy,0,2013-01-17 09:28:00
1:36 AM,10.4,8.6,92,30.51,0.5,Calm,Calm,-,N/A,Fog,Light Freezing Fog,0,2013-01-17 09:36:00
1:40 AM,10.4,6.8,85,30.51,2.0,Calm,Calm,-,N/A,,Overcast,0,2013-01-17 09:40:00
1:53 AM,9.0,6.1,88,30.62,0.2,Calm,Calm,-,N/A,Fog,Light Freezing Fog,0,2013-01-17 09:53:00
2:53 AM,10.9,9.0,92,30.62,0.8,Calm,Calm,-,N/A,,Overcast,0,2013-01-17 10:53:00
2:58 AM,10.4,8.6,92,30.51,2.0,Calm,Calm,-,N/A,,Overcast,0,2013-01-17 10:58:00
3:10 AM,12.2,10.4,92,30.51,1.8,Calm,Calm,-,N/A,,Overcast,0,2013-01-17 11:10:00
3:13 AM,12.2,10.4,92,30.51,3.0,WNW,3.5,-,N/A,,Overcast,290,2013-01-17 11:13:00
4:53 AM,17.1,15.1,92,30.61,5.0,WNW,3.5,-,N/A,,Overcast,290,2013-01-17 12:53:00
5:22 AM,15.8,15.8,100,30.50,2.0,WNW,3.5,-,N/A,,Overcast,290,2013-01-17 13:22:00
5:30 AM,17.6,15.8,93,30.50,1.5,Calm,Calm,-,N/A,,Overcast,0,2013-01-17 13:30:00
5:45 AM,17.6,15.8,93,30.50,0.8,Calm,Calm,-,N/A,,Mist,0,2013-01-17 13:45:00
5:53 AM,17.1,14.0,88,30.61,0.8,Calm,Calm,-,N/A,,Mist,0,2013-01-17 13:53:00
6:53 AM,18.0,17.1,96,30.61,1.0,Calm,Calm,-,N/A,,Mist,0,2013-01-17 14:53:00
7:17 AM,17.6,15.8,93,30.50,0.5,Calm,Calm,-,N/A,Fog,Light Freezing Fog,0,2013-01-17 15:17:00
7:53 AM,19.0,18.0,96,30.63,0.2,Calm,Calm,-,N/A,Fog,Light Freezing Fog,0,2013-01-17 15:53:00
8:53 AM,19.0,17.1,92,30.63,0.2,WSW,3.5,-,N/A,Fog,Light Freezing Fog,250,2013-01-17 16:53:00
9:53 AM,19.0,19.0,100,30.65,0.2,Calm,Calm,-,N/A,Fog,Light Freezing Fog,0,2013-01-17 17:53:00
10:31 AM,19.4,19.4,100,30.52,1.2,Calm,Calm,-,N/A,,Overcast,0,2013-01-17 18:31:00
10:44 AM,19.4,19.4,100,30.51,2.0,Calm,Calm,-,N/A,,Overcast,0,2013-01-17 18:44:00
10:53 AM,19.9,19.0,96,30.63,3.0,Calm,Calm,-,N/A,,Overcast,0,2013-01-17 18:53:00
11:08 AM,19.4,19.4,100,30.50,2.0,Calm,Calm,-,N/A,,Overcast,0,2013-01-17 19:08:00
11:19 AM,21.2,19.4,93,30.50,1.5,Calm,Calm,-,N/A,,Overcast,0,2013-01-17 19:19:00
11:37 AM,21.2,21.2,100,30.49,2.0,Calm,Calm,-,N/A,,Overcast,0,2013-01-17 19:37:00
11:53 AM,21.0,19.9,96,30.61,1.2,Calm,Calm,-,N/A,,Overcast,0,2013-01-17 19:53:00
12:09 PM,21.2,21.2,100,30.47,0.5,SSW,3.5,-,N/A,Fog,Light Freezing Fog,200,2013-01-17 20:09:00
12:53 PM,21.0,21.0,100,30.58,0.5,Calm,Calm,-,N/A,Fog,Light Freezing Fog,0,2013-01-17 20:53:00
1:53 PM,21.9,21.9,100,30.55,0.8,Calm,Calm,-,N/A,,Mist,0,2013-01-17 21:53:00
2:53 PM,21.9,21.9,100,30.54,0.2,Calm,Calm,-,N/A,Fog,Light Freezing Fog,0,2013-01-17 22:53:00
3:53 PM,21.9,21.0,96,30.51,0.2,South,3.5,-,N/A,Fog,Light Freezing Fog,180,2013-01-17 23:53:00
4:53 PM,21.0,19.0,92,30.52,0.2,Calm,Calm,-,N/A,Fog,Light Freezing Fog,0,2013-01-18 00:53:00
5:53 PM,19.9,18.0,92,30.51,0.2,West,3.5,-,N/A,Fog,Light Freezing Fog,260,2013-01-18 01:53:00
6:53 PM,19.0,18.0,96,30.48,0.5,SSE,3.5,-,N/A,Fog,Light Freezing Fog,150,2013-01-18 02:53:00
7:53 PM,18.0,17.1,96,30.48,0.5,Calm,Calm,-,N/A,Fog,Light Freezing Fog,0,2013-01-18 03:53:00
8:24 PM,17.6,15.8,93,30.37,2.0,NNE,3.5,-,N/A,,Overcast,30,2013-01-18 04:24:00
8:31 PM,17.6,15.8,93,30.37,6.0,Calm,Calm,-,N/A,,Overcast,0,2013-01-18 04:31:00
8:53 PM,18.0,16.0,92,30.47,5.0,Calm,Calm,-,N/A,,Overcast,0,2013-01-18 04:53:00
9:07 PM,17.6,15.8,93,30.36,1.8,Calm,Calm,-,N/A,,Overcast,0,2013-01-18 05:07:00
9:15 PM,17.6,15.8,93,30.36,0.2,Calm,Calm,-,N/A,Fog,Light Freezing Fog,0,2013-01-18 05:15:00
9:53 PM,18.0,16.0,92,30.45,0.2,Calm,Calm,-,N/A,Fog,Light Freezing Fog,0,2013-01-18 05:53:00
10:53 PM,18.0,17.1,96,30.45,0.5,Calm,Calm,-,N/A,Fog,Light Freezing Fog,0,2013-01-18 06:53:00
11:23 PM,17.6,15.8,93,30.34,2.0,Calm,Calm,-,N/A,,Overcast,0,2013-01-18 07:23:00
11:31 PM,17.6,15.8,93,30.34,3.0,Calm,Calm,-,N/A,,Overcast,0,2013-01-18 07:31:00
11:53 PM,18.0,16.0,92,30.44,2.0,Calm,Calm,-,N/A,,Overcast,0,2013-01-18 07:53:00